Weather History for McAllen, TX

Change the Weather History Date:

Friday, February 10, 2012

  Actual Average Record
Temperature  
Mean Temperature 60 °F 64 °F  
Max Temperature 63 °F 74 °F 96 °F (2013)
Min Temperature 56 °F 53 °F 29 °F (1910)
Degree Days  
Heating Degree Days 5 4  
Month to date heating degree days 52 49  
Since 1 July heating degree days 332 476  
Cooling Degree Days 0 3  
Month to date cooling degree days 38 28  
Year to date cooling degree days 150 90  
Growing Degree Days 8 (Base 50)    
Moisture  
Dew Point 55 °F    
Average Humidity 89    
Maximum Humidity 100    
Minimum Humidity 78    
Precipitation  
Precipitation T in 0.03 in 0.98 in (1958)
Month to date precipitation 2.23 0.42  
Year to date precipitation 2.44 1.47  
Sea Level Pressure  
Sea Level Pressure 30.12 in    
Wind  
Wind Speed 7 mph (NNW)    
Max Wind Speed 17 mph    
Max Gust Speed 23 mph    
Visibility 6 miles    
Events Rain    
T = Trace of Precipitation, MM = Missing Value Source: NWS Daily Summary

Daily Weather History Graph

Daily Weather History Graph

Search for Another Location

Airport:

Trip Planner

Search our weather history database for the weather conditions in past years. The results will help you decide how hot, cold, wet, or windy it might be!

Date:

Astronomy

Feb. 10, 2012 Rise Set
Actual Time 7:12 AM CST 6:22 PM CST
Civil Twilight 6:48 AM CST 6:46 PM CST
Nautical Twilight 6:21 AM CST 7:13 PM CST
Astronomical Twilight 5:54 AM CST 7:40 PM CST
Moon 9:33 PM CST (2/10) 8:46 AM CST (2/10)
Length of Visible Light 11h 57m
Length of Day
11h 09m
Waning Gibbous, 90% of the Moon is Illuminated
Feb 10
Waning Gibbous
Feb 14
Last Quarter
Feb 21
New
Feb 29
First Quarter
Mar 8
Full

Hourly Weather History & Observations

Time (CST) Temp. Dew Point Humidity Pressure Visibility Wind Dir Wind Speed Gust Speed Precip Events Conditions
12:53 AM 55.9 °F 54.0 °F 93% 30.09 in 6.0 mi NNW 4.6 mph - N/A   Overcast
1:26 AM 55.4 °F 53.6 °F 94% 30.10 in 4.0 mi NW 4.6 mph - N/A   Overcast
1:53 AM 55.9 °F 54.0 °F 93% 30.07 in 2.0 mi NNW 5.8 mph - N/A   Overcast
2:01 AM 55.4 °F 53.6 °F 94% 30.06 in 1.2 mi NNW 6.9 mph - N/A   Overcast
2:40 AM 55.4 °F 53.6 °F 94% 30.07 in 0.8 mi WNW 6.9 mph - N/A   Mist
2:53 AM 55.9 °F 55.0 °F 97% 30.06 in 0.8 mi NW 5.8 mph - N/A   Mist
3:07 AM 55.4 °F 53.6 °F 94% 30.06 in 1.0 mi NW 5.8 mph - N/A   Mist
3:25 AM 55.4 °F 53.6 °F 94% 30.06 in 2.0 mi NNW 5.8 mph - 0.00 in Rain Light Rain
3:53 AM 55.9 °F 55.0 °F 97% 30.06 in 2.5 mi NNW 4.6 mph - 0.00 in   Overcast
4:01 AM 55.4 °F 55.4 °F 100% 30.06 in 3.0 mi NNW 3.5 mph - N/A   Overcast
4:53 AM 55.9 °F 55.0 °F 97% 30.06 in 3.0 mi WNW 4.6 mph - 0.00 in Rain Light Rain
5:53 AM 55.9 °F 55.0 °F 97% 30.07 in 4.0 mi NW 4.6 mph - 0.00 in   Overcast
6:53 AM 57.0 °F 55.0 °F 93% 30.07 in 4.0 mi NW 3.5 mph - N/A   Overcast
7:34 AM 57.2 °F 55.4 °F 94% 30.07 in 4.0 mi NNW 4.6 mph - N/A   Overcast
7:53 AM 57.0 °F 55.0 °F 93% 30.09 in 3.0 mi NNW 6.9 mph - N/A   Overcast
8:53 AM 57.9 °F 55.0 °F 90% 30.12 in 3.0 mi NNW 10.4 mph - N/A   Overcast
9:53 AM 59.0 °F 55.0 °F 87% 30.13 in 5.0 mi NNW 8.1 mph - N/A   Overcast
10:53 AM 60.1 °F 55.9 °F 86% 30.13 in 6.0 mi North 4.6 mph - N/A   Overcast
11:53 AM 61.0 °F 57.0 °F 87% 30.14 in 7.0 mi NNW 6.9 mph - N/A   Overcast
12:53 PM 62.1 °F 57.9 °F 86% 30.13 in 8.0 mi North 10.4 mph - N/A   Overcast
1:30 PM 62.6 °F 57.2 °F 82% 30.13 in 10.0 mi North 16.1 mph 23.0 mph N/A   Overcast
1:53 PM 61.0 °F 55.9 °F 83% 30.14 in 8.0 mi North 12.7 mph 20.7 mph N/A   Overcast
2:53 PM 62.1 °F 55.9 °F 80% 30.14 in 10.0 mi North 12.7 mph - N/A   Overcast
3:53 PM 62.1 °F 55.9 °F 80% 30.13 in 10.0 mi NNW 13.8 mph - N/A   Overcast
4:11 PM 62.6 °F 55.4 °F 77% 30.13 in 10.0 mi NNW 16.1 mph - N/A   Overcast
4:53 PM 61.0 °F 55.0 °F 81% 30.12 in 10.0 mi North 18.4 mph - N/A   Overcast
5:53 PM 61.0 °F 54.0 °F 78% 30.15 in 10.0 mi NNW 8.1 mph - N/A   Overcast
6:53 PM 61.0 °F 54.0 °F 78% 30.17 in 10.0 mi North 5.8 mph - N/A   Overcast
7:53 PM 61.0 °F 54.0 °F 78% 30.21 in 10.0 mi NNW 6.9 mph - N/A   Overcast
8:24 PM 60.8 °F 53.6 °F 77% 30.22 in 10.0 mi Calm Calm - N/A   Mostly Cloudy
8:53 PM 59.0 °F 54.0 °F 83% 30.23 in 10.0 mi Calm Calm - N/A   Mostly Cloudy
9:53 PM 59.0 °F 55.0 °F 87% 30.25 in 10.0 mi Calm Calm - N/A   Overcast
10:53 PM 59.0 °F 54.0 °F 83% 30.26 in 10.0 mi West 3.5 mph - N/A   Overcast
11:53 PM 57.9 °F 54.0 °F 87% 30.26 in 10.0 mi WNW 4.6 mph - N/A   Clear